SL-14 DEB, 45326

Orbit data source: Space-Track

SL-14 DEB, 45326 is space debris in LEO originally from a launch on Thu, 15 Aug 1991 UTC launched from the Plesetsk Missile And Space Complex (PKMTR). Debris objects in space refer to the collection of defunct objects orbiting the Earth. Examples of debris include non-operational satellites, rocket bodies, and fragments generated from explosions, collisions, or faulty payload assembly.

Loading next visibility...
Identifier
45326, 1991-056BQ
Orbit
LEO
Country
Flag of CISCIS
Related business
Manufacturer
Unknown
Mission
Spacecraft
Bus & Motor
Unknown
Mass
Unknown
Launch date (UTC)
1991-08-15 (35 years ago)
Launch vehicle
Unknown
Launch site
Plesetsk Missile And Space Complex (PKMTR)
Object type
Payload
Rocket body
Debris
Shape & HBR
Unknown shape, 0.1 m
Radar Cross Section
Small (<0.1 m²)

Expand to show TLE details & history
Last TLE update: 23 hours ago

TLE from 23 hours ago
0 SL-14 DEB
1 45326U 91056BQ  26126.04503185  .00000679  00000-0  15289-2 0  9993
2 45326  82.5909 159.1874 0040489 127.9861 232.4934 13.25103492300616
Epoch: 2026-05-06T01:04Z
TLE epoch observation values (Epoch: 2026-05-06T01:04:50.751Z)
Latitude
-0.00005°
Longitude
-80.93523°
Altitude
1,186.786 km
Speed
7.251 km/s
True Right ascension
10h 36m 44s
True Declination
0° 00' 00"
Sunlit
Object was in daylight at epoch
Visualization orbit readout
Latitude
Unknown
Longitude
Unknown
Altitude
Unknown
Speed
Unknown
Apparent Right ascension
Unknown
Apparent Declination
Unknown
Sunlit
N/A
Visualization observer readout
Local Sidereal Time
07:41:16
Azimuth
Unknown
Elevation
Unknown
Doppler factor
Unknown
Orbital elements
Apogee altitude
1,193.052 km
Perigee altitude
1,131.99 km
Semi-major axis
7,540.658 km
Eccentricity
0.00405
Inclination
82.5909°
RAAN
159.1874°
Arg. of periapsis
127.9861°
True anomaly
232.12647°
Mean anomaly
232.4934°
Eccentric anomaly
232.30982°
Mean motion
3.31459 °/min
Orbital period
108.61 mins
BSTAR
0.0015289
Loading maneuver chart data...
Computing Atmospheric mass density...
Loading historical data...
Loading historical data...
Loading historical data...
Loading historical data...
Loading historical data...
Loading historical data...
Loading historical data...

Documentation

Showing up to 5 results
|